Home > Weather > Wismar > Past weeks

Flag for Germany Past Weather in Wismar, Mecklenburg-Western Pomerania, Germany — Yesterday and Last 2 Weeks

Now
61 °F

Passing clouds.


Feels Like: 61 °F
Forecast: 57 / 69 °F
Wind: 6 mph from Southwest

Location: Laage

Current Time: Aug 29, 2016 at 4:12:35 AM

Latest Report: Aug 29, 2016 at 3:20 AM


Visibility: N/A

Pressure: 29.86 "Hg

Humidity: 94%

Dew Point: 59 °F

Location of WismarLocation

Past Weather in Wismar — Graph

°F

Wismar Temperature Yesterday

Maximum temperature yesterday: 90 °F (at 4:20 PM)
Minimum temperature yesterday: 61 °F (at 2:20 AM)
Average temperature yesterday: 71 °F

High & Low Weather Summary for the Past Weeks

 TemperatureHumidityPressure
High91 °F (Aug 26, 3:20 PM)100% (Aug 16, 3:20 AM)30.33 "Hg (Aug 16, 3:20 AM)
Low45 °F (Aug 17, 6:20 AM)29% (Aug 25, 4:55 PM)29.80 "Hg (Aug 18, 7:46 AM)
Average65 °F74%30.06 "Hg
* Reported Aug 14 3:20 AM — Aug 29 2:20 AM, Wismar, Weather by CustomWeather, © 2016

Note: Actual official high and low records may vary slightly from our data, if they occured in-between our weather recording intervals... More about our weather records

Advertising

Wismar Weather History for the Previous 24 Hours

Scroll right to see more
 ConditionsComfort  
Time TempWeatherWind HumidityBarometerVisibility
2:20 AM
Mon, Aug 29
63 °FPassing clouds.6 mph88%29.86 "HgN/A
1:20 AM64 °FPassing clouds.10 mph88%29.86 "HgN/A
12:20 AM66 °FPassing clouds.15 mph88%29.86 "HgN/A
11:20 PM
Sun, Aug 28
66 °FPartly cloudy.7 mph94%29.86 "HgN/A
10:20 PM68 °FThunderstorms. Passing clouds.7 mph88%29.86 "HgN/A
9:20 PM68 °FThunderstorms. Passing clouds.7 mph88%29.83 "HgN/A
8:45 PM68 °FThunderstorms. Partly sunny.9 mph88%29.86 "Hg4 mi
8:20 PM70 °FStrong thunderstorms. Partly sunny.14 mph83%29.89 "Hg3 mi
7:54 PM72 °FStrong thunderstorms. Broken clouds.17 mph73%29.86 "Hg2 mi
7:20 PM73 °FThundershowers. Partly sunny.6 mph65%29.80 "HgN/A
6:20 PM75 °FThundershowers. Broken clouds.8 mph61%29.83 "HgN/A
5:20 PM79 °FPartly sunny.14 mph54%29.83 "HgN/A
4:20 PM90 °FScattered clouds.7 mph36%29.83 "HgN/A
3:20 PM88 °FScattered clouds.6 mph40%29.83 "HgN/A
2:20 PM86 °FPartly sunny.7 mph43%29.86 "HgN/A
1:20 PM86 °FPartly sunny.7 mph40%29.86 "HgN/A
12:20 PM81 °FPartly sunny.9 mph51%29.89 "HgN/A
11:20 AM75 °FPartly sunny.9 mph61%29.89 "HgN/A
10:20 AM70 °FPartly sunny.10 mph69%29.92 "HgN/A
9:20 AM68 °FBroken clouds.13 mph69%29.95 "HgN/A
8:55 AM66 °FThundershowers. Broken clouds.9 mph73%29.95 "HgN/A
8:20 AM64 °FBroken clouds.8 mph78%29.98 "HgN/A
7:20 AM63 °FBroken clouds.7 mph77%30.01 "HgN/A
6:20 AM61 °FPartly cloudy.7 mph83%30.01 "HgN/A
5:20 AM61 °FPassing clouds.9 mph83%29.98 "HgN/A
4:20 AM61 °FPassing clouds.12 mph77%29.98 "HgN/A
Weather by CustomWeather, © 2016

See weather overviewHow to use our weather pages